Weather History for KMIE - October, 2012

Change the Weather History Date:

Friday, October 19, 2012

  Actual Average Record
Temperature  
Mean Temperature 49 °F 53 °F  
Max Temperature 51 °F 63 °F 79 °F (1963)
Min Temperature 46 °F 42 °F 19 °F (1992)
Degree Days  
Heating Degree Days 16 13  
Month to date heating degree days 243 191  
Since 1 July heating degree days 368 292  
Cooling Degree Days 0 0  
Month to date cooling degree days 1 13  
Year to date cooling degree days 1142 952  
Moisture  
Dew Point 41 °F    
Average Humidity 73    
Maximum Humidity 86    
Minimum Humidity 59    
Precipitation  
Precipitation 0.23 in 0.09 in 1.62 in (2011)
Month to date precipitation 3.56 1.84  
Year to date precipitation 28.12 32.71  
Sea Level Pressure  
Sea Level Pressure 29.60 in    
Wind  
Wind Speed 9 mph (SW)    
Max Wind Speed 16 mph    
Max Gust Speed 22 mph    
Visibility 9 miles    
Events Rain    
T = Trace of Precipitation, MM = Missing Value Source: NWS Daily Summary

Daily Weather History Graph

Daily Weather History Graph

Search for Another Location

Airport or City:

Trip Planner

Search our weather history database for the weather conditions in past years. The results will help you decide how hot, cold, wet, or windy it might be!

Date:

Astronomy

Oct. 19, 2012 Rise Set
Actual Time 7:57 AM EDT 6:55 PM EDT
Civil Twilight 7:29 AM EDT 7:22 PM EDT
Nautical Twilight 6:57 AM EDT 7:54 PM EDT
Astronomical Twilight 6:26 AM EDT 8:25 PM EDT
Moon 12:39 PM EDT (10/19) 10:32 PM EDT (10/19)
Length of Visible Light 11h 53m
Length of Day
10h 58m
Waxing Crescent, 23% of the Moon is Illuminated
Oct 19
Waxing Crescent
Oct 21
First Quarter
Oct 29
Full
Nov 6
Last Quarter
Nov 13
New

Hourly Weather History & Observations

Time (EDT) Temp. Windchill Dew Point Humidity Pressure Visibility Wind Dir Wind Speed Gust Speed Precip Events Conditions
12:53 AM 50.0 °F - 37.0 °F 61% 29.60 in 10.0 mi Calm Calm - N/A   Overcast
1:53 AM 46.9 °F - 39.9 °F 77% 29.59 in 10.0 mi Calm Calm - N/A   Overcast
2:53 AM 48.9 °F - 36.0 °F 61% 29.57 in 10.0 mi South 3.5 mph - N/A   Overcast
3:53 AM 48.9 °F - 36.0 °F 61% 29.55 in 10.0 mi South 5.8 mph - N/A   Overcast
4:53 AM 50.0 °F - 36.0 °F 59% 29.55 in 10.0 mi SSW 11.5 mph - 0.00 in Rain Light Rain
5:53 AM 48.0 °F - 39.0 °F 71% 29.55 in 10.0 mi South 10.4 mph - 0.01 in Rain Light Rain
6:53 AM 46.9 °F - 39.0 °F 74% 29.54 in 10.0 mi South 11.5 mph - 0.01 in Rain Light Rain
7:53 AM 46.9 °F - 39.9 °F 77% 29.55 in 10.0 mi SSW 6.9 mph - 0.00 in   Overcast
8:53 AM 46.9 °F - 39.9 °F 77% 29.55 in 10.0 mi SSW 5.8 mph - 0.00 in   Overcast
9:53 AM 48.9 °F - 39.9 °F 71% 29.55 in 10.0 mi SSW 12.7 mph 17.3 mph N/A   Overcast
10:53 AM 50.0 °F - 39.0 °F 66% 29.54 in 10.0 mi SW 8.1 mph - N/A   Mostly Cloudy
11:53 AM 51.1 °F - 37.9 °F 61% 29.55 in 10.0 mi SSW 11.5 mph 20.7 mph N/A   Overcast
12:53 PM 50.0 °F - 39.9 °F 68% 29.55 in 10.0 mi SW 9.2 mph - 0.00 in Rain Light Rain
1:53 PM 48.9 °F - 42.1 °F 77% 29.55 in 7.0 mi SW 11.5 mph - 0.03 in Rain Light Rain
2:03 PM 48.2 °F - 42.8 °F 82% 29.56 in 6.0 mi SSW 8.1 mph - 0.01 in Rain Light Rain
2:30 PM 48.2 °F - 42.8 °F 82% 29.56 in 9.0 mi SSW 16.1 mph 19.6 mph 0.03 in Rain Light Rain
2:39 PM 46.4 °F 41.5 °F 42.8 °F 87% 29.56 in 8.0 mi SW 10.4 mph 19.6 mph 0.03 in Rain Light Rain
2:53 PM 46.9 °F - 42.1 °F 83% 29.56 in 6.0 mi SW 9.2 mph 18.4 mph 0.05 in Rain Light Rain
3:53 PM 46.9 °F - 43.0 °F 86% 29.57 in 7.0 mi SW 8.1 mph - 0.04 in Rain Light Rain
3:59 PM 46.4 °F 41.9 °F 42.8 °F 87% 29.57 in 4.0 mi West 9.2 mph - 0.02 in Rain Rain
4:16 PM 46.4 °F 41.1 °F 42.8 °F 87% 29.58 in 6.0 mi SW 11.5 mph 17.3 mph 0.03 in Rain Light Rain
4:24 PM 46.4 °F 41.5 °F 41.0 °F 81% 29.58 in 6.0 mi SW 10.4 mph - 0.03 in Rain Light Rain
4:53 PM 46.0 °F 41.9 °F 42.1 °F 86% 29.59 in 8.0 mi SW 8.1 mph - 0.05 in Rain Light Rain
5:04 PM 46.4 °F 41.9 °F 42.8 °F 87% 29.59 in 9.0 mi SW 9.2 mph - 0.00 in Rain Light Rain
5:14 PM 46.4 °F 41.1 °F 42.8 °F 87% 29.59 in 10.0 mi SW 11.5 mph 18.4 mph 0.00 in Rain Light Rain
5:30 PM 46.4 °F 41.9 °F 42.8 °F 87% 29.59 in 10.0 mi SW 9.2 mph - 0.00 in Rain Light Rain
5:51 PM 46.4 °F 41.5 °F 42.8 °F 87% 29.60 in 10.0 mi SW 10.4 mph - 0.01 in   Overcast
5:53 PM 46.0 °F 41.4 °F 42.1 °F 86% 29.60 in 10.0 mi SW 9.2 mph - 0.01 in   Overcast
6:53 PM 46.0 °F 41.4 °F 43.0 °F 89% 29.61 in 4.0 mi SW 9.2 mph - 0.00 in Rain Light Rain
6:56 PM 46.4 °F 42.4 °F 42.8 °F 87% 29.62 in 2.5 mi SW 8.1 mph - 0.01 in Rain Rain
7:03 PM 46.4 °F 42.4 °F 42.8 °F 87% 29.62 in 2.5 mi SW 8.1 mph - 0.01 in Rain Light Rain
7:10 PM 46.4 °F 41.9 °F 42.8 °F 87% 29.62 in 9.0 mi WSW 9.2 mph 16.1 mph 0.01 in Rain Light Rain
7:53 PM 46.9 °F - 43.0 °F 86% 29.63 in 10.0 mi SW 5.8 mph - 0.01 in   Overcast
8:05 PM 46.4 °F 42.9 °F 42.8 °F 87% 29.63 in 10.0 mi SW 6.9 mph - N/A   Overcast
8:20 PM 46.4 °F 42.9 °F 42.8 °F 87% 29.63 in 10.0 mi SW 6.9 mph - N/A   Mostly Cloudy
8:31 PM 46.4 °F 42.9 °F 42.8 °F 87% 29.63 in 10.0 mi SW 6.9 mph - N/A   Mostly Cloudy
8:41 PM 46.4 °F 41.9 °F 42.8 °F 87% 29.64 in 10.0 mi SW 9.2 mph - 0.00 in Rain Light Rain
8:53 PM 46.0 °F 43.1 °F 43.0 °F 89% 29.63 in 7.0 mi SW 5.8 mph 17.3 mph 0.00 in Rain Light Rain
9:08 PM 46.4 °F 42.4 °F 42.8 °F 87% 29.64 in 7.0 mi WSW 8.1 mph - 0.01 in Rain Light Rain
9:53 PM 46.0 °F 40.6 °F 43.0 °F 89% 29.65 in 7.0 mi WSW 11.5 mph 18.4 mph 0.01 in   Overcast
10:06 PM 46.4 °F 41.5 °F 42.8 °F 87% 29.65 in 10.0 mi WSW 10.4 mph 20.7 mph N/A   Overcast
10:29 PM 46.4 °F 41.9 °F 42.8 °F 87% 29.65 in 10.0 mi WSW 9.2 mph - 0.00 in Rain Light Rain
10:50 PM 46.4 °F 42.4 °F 42.8 °F 87% 29.65 in 10.0 mi WSW 8.1 mph - 0.01 in Rain Light Rain
10:53 PM 46.9 °F - 43.0 °F 86% 29.65 in 10.0 mi WSW 8.1 mph - 0.01 in   Overcast
11:08 PM 46.4 °F 41.5 °F 42.8 °F 87% 29.66 in 10.0 mi WSW 10.4 mph 18.4 mph 0.00 in   Overcast
11:53 PM 46.9 °F - 42.1 °F 83% 29.67 in 10.0 mi WSW 9.2 mph - 0.00 in   Overcast